Weather History for Gunnison, CO

Change the Weather History Date:

Tuesday, August 26, 2014

  Actual Average Record
Temperature  
Mean Temperature 56 °F -  
Max Temperature 71 °F 73 °F 82 °F (2002)
Min Temperature 42 °F 40 °F 33 °F (2002)
Degree Days  
Heating Degree Days 8    
Growing Degree Days 6 (Base 50)    
Moisture  
Dew Point 42 °F    
Average Humidity 64    
Maximum Humidity 82    
Minimum Humidity 29    
Precipitation  
Precipitation 0.22 in - - ()
Sea Level Pressure  
Sea Level Pressure 30.37 in    
Wind  
Wind Speed 2 mph (South)    
Max Wind Speed 28 mph    
Max Gust Speed 34 mph    
Visibility 10 miles    
Events Thunderstorm    
Averages and records for this station are not official NWS values.
T = Trace of Precipitation, MM = Missing Value Source: NWS Daily Summary

Daily Weather History Graph

Daily Weather History Graph

Search for Another Location

Airport:

Trip Planner

Search our weather history database for the weather conditions in past years. The results will help you decide how hot, cold, wet, or windy it might be!

Date:

Astronomy

Aug. 26, 2014 Rise Set
Actual Time 6:31 AM MDT 7:46 PM MDT
Civil Twilight 6:04 AM MDT 8:13 PM MDT
Nautical Twilight 5:31 AM MDT 8:46 PM MDT
Astronomical Twilight 4:56 AM MDT 9:21 PM MDT
Moon 7:33 AM MDT (8/26) 8:10 PM MDT (8/26)
Length of Visible Light 14h 09m
Length of Day
13h 14m
New Moon, 1% of the Moon is Illuminated
Aug 26
New Moon
Sep 2
First Quarter
Sep 8
Full
Sep 15
Last Quarter
Sep 24
New

Hourly Weather History & Observations

Time (MDT) Temp. Windchill Dew Point Humidity Pressure Visibility Wind Dir Wind Speed Gust Speed Precip Events Conditions
12:15 AM 51.8 °F - 42.8 °F 71% 30.33 in 10.0 mi Calm Calm - N/A   Clear
12:35 AM 51.8 °F - 42.8 °F 71% 30.33 in 10.0 mi Calm Calm - N/A   Clear
12:55 AM 51.8 °F - 42.8 °F 71% 30.33 in 10.0 mi Calm Calm - N/A   Clear
1:15 AM 51.8 °F - 42.8 °F 71% 30.34 in 10.0 mi NE 4.6 mph - N/A   Clear
1:35 AM 48.2 °F - 41.0 °F 76% 30.34 in 10.0 mi Calm Calm - N/A   Clear
1:55 AM 46.4 °F - 39.2 °F 76% 30.34 in 10.0 mi Calm Calm - N/A   Clear
2:15 AM 46.4 °F 44.3 °F 39.2 °F 76% 30.35 in 10.0 mi ENE 4.6 mph - N/A   Clear
2:35 AM 46.4 °F - 37.4 °F 71% 30.35 in 10.0 mi Calm Calm - N/A   Clear
2:55 AM 46.4 °F - 39.2 °F 76% 30.35 in 10.0 mi Calm Calm - N/A   Clear
3:15 AM 46.4 °F - 39.2 °F 76% 30.35 in 10.0 mi Calm Calm - N/A   Clear
3:35 AM 44.6 °F 43.1 °F 37.4 °F 76% 30.35 in 10.0 mi SE 3.5 mph - N/A   Clear
3:55 AM 44.6 °F - 39.2 °F 81% 30.36 in 10.0 mi Calm Calm - N/A   Clear
4:15 AM 46.4 °F - 39.2 °F 76% 30.36 in 10.0 mi Calm Calm - N/A   Clear
4:35 AM 46.4 °F - 39.2 °F 76% 30.36 in 10.0 mi Calm Calm - N/A   Clear
4:55 AM 44.6 °F - 39.2 °F 81% 30.37 in 10.0 mi Calm Calm - N/A   Clear
5:15 AM 42.8 °F - 37.4 °F 81% 30.38 in 10.0 mi Calm Calm - N/A   Mostly Cloudy
5:35 AM 44.6 °F - 37.4 °F 76% 30.38 in 10.0 mi Calm Calm - N/A   Scattered Clouds
5:55 AM 42.8 °F 41.1 °F 37.4 °F 81% 30.39 in 10.0 mi SE 3.5 mph - N/A   Partly Cloudy
6:15 AM 44.6 °F - 39.2 °F 81% 30.39 in 10.0 mi Calm Calm - N/A   Partly Cloudy
6:35 AM 44.6 °F 43.1 °F 39.2 °F 81% 30.39 in 10.0 mi East 3.5 mph - N/A   Clear
6:55 AM 44.6 °F - 39.2 °F 81% 30.39 in 10.0 mi Calm Calm - N/A   Clear
7:15 AM 44.6 °F 43.1 °F 39.2 °F 81% 30.40 in 10.0 mi SE 3.5 mph - N/A   Clear
7:35 AM 44.6 °F - 39.2 °F 81% 30.41 in 10.0 mi Calm Calm - N/A   Clear
7:55 AM 48.2 °F - 41.0 °F 76% 30.41 in 10.0 mi Calm Calm - N/A   Clear
8:15 AM 48.2 °F - 41.0 °F 76% 30.42 in 10.0 mi Calm Calm - N/A   Scattered Clouds
8:35 AM 51.8 °F - 41.0 °F 67% 30.42 in 10.0 mi Calm Calm - N/A   Mostly Cloudy
8:55 AM 51.8 °F - 42.8 °F 71% 30.41 in 10.0 mi Calm Calm - N/A   Partly Cloudy
9:15 AM 53.6 °F - 41.0 °F 62% 30.41 in 10.0 mi Calm Calm - N/A   Clear
9:35 AM 55.4 °F - 42.8 °F 63% 30.42 in 10.0 mi WSW 4.6 mph - N/A   Partly Cloudy
9:55 AM 55.4 °F - 42.8 °F 63% 30.43 in 10.0 mi WSW 5.8 mph - N/A   Mostly Cloudy
10:15 AM 53.6 °F - 42.8 °F 67% 30.44 in 10.0 mi WSW 5.8 mph - N/A   Scattered Clouds
10:35 AM 55.4 °F - 42.8 °F 63% 30.44 in 7.0 mi West 4.6 mph - N/A   Partly Cloudy
10:55 AM 57.2 °F - 42.8 °F 59% 30.44 in 10.0 mi SW 3.5 mph - N/A   Clear
11:15 AM 59.0 °F - 42.8 °F 55% 30.44 in 10.0 mi Calm Calm - N/A   Clear
11:35 AM 60.8 °F - 42.8 °F 52% 30.42 in 10.0 mi East 5.8 mph - N/A   Clear
11:55 AM 62.6 °F - 42.8 °F 48% 30.42 in 10.0 mi Calm Calm - N/A   Clear
12:15 PM 64.4 °F - 42.8 °F 45% 30.41 in 10.0 mi NW 3.5 mph - N/A   Clear
12:35 PM 66.2 °F - 41.0 °F 40% 30.39 in 10.0 mi ENE 5.8 mph - N/A   Clear
12:55 PM 66.2 °F - 41.0 °F 40% 30.38 in 10.0 mi Calm Calm - N/A   Clear
1:15 PM 69.8 °F - 42.8 °F 38% 30.37 in 10.0 mi ESE 4.6 mph - N/A   Clear
1:35 PM 69.8 °F - 42.8 °F 38% 30.37 in 10.0 mi West 5.8 mph - N/A   Clear
1:55 PM 68.0 °F - 42.8 °F 40% 30.37 in 10.0 mi West 12.7 mph 27.6 mph N/A   Partly Cloudy
2:15 PM 69.8 °F - 37.4 °F 31% 30.36 in 10.0 mi SSW 11.5 mph - N/A   Clear
2:35 PM 69.8 °F - 39.2 °F 33% 30.35 in 10.0 mi SW 9.2 mph - N/A   Partly Cloudy
2:55 PM 69.8 °F - 37.4 °F 31% 30.34 in 10.0 mi SW 5.8 mph - N/A   Scattered Clouds
3:15 PM 69.8 °F - 39.2 °F 33% 30.33 in 10.0 mi SE 9.2 mph - N/A   Partly Cloudy
3:35 PM 69.8 °F - 37.4 °F 31% 30.32 in 10.0 mi SSE 8.1 mph - N/A   Clear
3:55 PM 71.6 °F - 37.4 °F 29% 30.31 in 10.0 mi South 9.2 mph - N/A   Clear
4:15 PM 69.8 °F - 37.4 °F 31% 30.31 in 10.0 mi SSW 4.6 mph - N/A   Partly Cloudy
4:35 PM 71.6 °F - 37.4 °F 29% 30.30 in 10.0 mi Calm Calm - N/A   Partly Cloudy
4:55 PM 71.6 °F - 37.4 °F 29% 30.30 in 10.0 mi Calm Calm - N/A   Partly Cloudy
5:15 PM 68.0 °F - 44.6 °F 43% 30.30 in 10.0 mi SSW 9.2 mph 18.4 mph N/A   Mostly Cloudy
5:35 PM 66.2 °F - 42.8 °F 43% 30.30 in 10.0 mi SW 11.5 mph - N/A   Mostly Cloudy
5:55 PM 64.4 °F - 44.6 °F 49% 30.31 in 10.0 mi SSW 10.4 mph - N/A   Overcast
6:15 PM 62.6 °F - 42.8 °F 48% 30.33 in 10.0 mi South 27.6 mph 34.5 mph N/A   Overcast
6:35 PM 55.4 °F - 46.4 °F 72% 30.35 in 7.0 mi South 12.7 mph - 0.02 in Thunderstorm Thunderstorm
6:55 PM 55.4 °F - 46.4 °F 72% 30.36 in 5.0 mi SSE 3.5 mph - 0.06 in Thunderstorm Overcast
7:15 PM 55.4 °F - 48.2 °F 77% 30.36 in 10.0 mi NNW 3.5 mph - 0.03 in   Mostly Cloudy
7:35 PM 55.4 °F - 48.2 °F 77% 30.36 in 10.0 mi NE 8.1 mph - 0.03 in   Scattered Clouds
7:55 PM 55.4 °F - 48.2 °F 77% 30.36 in 10.0 mi NE 5.8 mph - 0.03 in   Scattered Clouds
8:15 PM 55.4 °F - 48.2 °F 77% 30.37 in 10.0 mi NNW 3.5 mph - N/A   Mostly Cloudy
8:35 PM 55.4 °F - 48.2 °F 77% 30.38 in 10.0 mi SW 3.5 mph - N/A   Mostly Cloudy
8:55 PM 55.4 °F - 48.2 °F 77% 30.39 in 8.0 mi SE 3.5 mph - 0.02 in   Mostly Cloudy
9:15 PM 53.6 °F - 48.2 °F 82% 30.40 in 7.0 mi Calm Calm - 0.08 in   Overcast
9:35 PM 53.6 °F - 48.2 °F 82% 30.40 in 9.0 mi Calm Calm - 0.10 in   Overcast
9:55 PM 53.6 °F - 48.2 °F 82% 30.40 in 10.0 mi Calm Calm - 0.11 in   Mostly Cloudy
10:35 PM 53.6 °F - 48.2 °F 82% 30.40 in 10.0 mi Calm Calm - N/A   Overcast
11:15 PM 53.6 °F - 48.2 °F 82% 30.39 in 10.0 mi Calm Calm - N/A   Overcast
11:35 PM 53.6 °F - 48.2 °F 82% 30.39 in 10.0 mi Calm Calm - N/A   Overcast
11:55 PM 53.6 °F - 48.2 °F 82% 30.38 in 10.0 mi Calm Calm - N/A   Overcast